Simultaneous Nadir Overpasses (SNOs) Predictions

Prediction of SNOs between NPP and TERRA Satellite Orbit:

Table of predicted SNOs for the next 14.0 days since TLE Epoch: 5/2/2016
Index Date (NPP) Time (NPP) Lat,Lon (NPP) SZA (NPP ) Date (TERRA) Time (TERRA) Lat,Lon (TERRA) SZA (TERRA ) Distance(km) Time Diff (sec)
1 05/02/2016 10:40:18 68.46, 18.72 52.77 05/02/2016 10:40:45 68.44, 18.71 52.75 1.78 27
2 05/02/2016 11:30:59 -68.32,-173.79 127.38 05/02/2016 11:30:15 -68.34,-173.79 127.37 1.42 44
3 05/05/2016 02:06:35 -68.88, -33.38 127.58 05/05/2016 02:07:46 -68.78, -32.65 127.68 31.05 71
4 05/05/2016 02:57:13 68.43, 134.52 51.97 05/05/2016 02:57:18 68.40, 134.52 51.93 3.64 5
5 05/05/2016 03:47:54 -68.29, -57.98 128.19 05/05/2016 03:46:48 -68.29, -57.97 128.19 0.39 66
6 05/07/2016 18:23:24 -68.53, 82.85 128.67 05/07/2016 18:24:23 -68.51, 82.88 128.70 2.57 59
7 05/07/2016 19:14:08 68.40,-109.68 51.19 05/07/2016 19:13:50 68.39,-109.61 51.19 2.65 18
8 05/07/2016 20:04:39 -67.73, 58.49 129.50 05/07/2016 20:03:29 -67.79, 57.31 129.43 50.45 70
9 05/10/2016 10:40:18 -68.45,-161.28 129.46 05/10/2016 10:40:56 -68.44,-161.34 129.47 2.62 38
10 05/10/2016 11:31:02 68.32, 6.19 50.41 05/10/2016 11:30:23 68.33, 6.17 50.41 0.79 39
11 05/13/2016 02:06:41 69.05, 146.37 50.49 05/13/2016 02:07:51 68.91, 147.48 50.34 47.29 70
12 05/13/2016 02:57:12 -68.43, -45.48 130.16 05/13/2016 02:57:27 -68.42, -45.49 130.17 1.02 15
13 05/13/2016 03:47:56 68.30, 121.98
